ECMWFFLT1_sfc_temp_000.txt.gz
Temp
66 64 67 66 67 67 67 67 67 67 68 69 69 69 69 69 68 68 67 67 67 70 69 69 68 69 69 71 70 70 69 67 66 64 64 64 63 63 65 65 65 66 69 69 68 66 65 62 65 71 73 72 71 73 73 74 75 75 71 72 76 75 73
68 67 68 69 67 67 66 66 66 67 67 68 69 69 70 69 69 68 67 67 67 67 68 69 69 70 69 68 68 68 67 66 67 66 65 64 64 63 63 63 63 63 63 65 67 66 62 63 65 67 67 71 70 69 71 73 74 72 73 73 75 76 73
68 68 68 65 66 66 66 65 66 66 66 67 67 69 66 69 68 67 66 66 65 66 66 68 68 67 67 67 67 67 68 66 66 66 65 66 67 66 65 64 62 62 62 62 62 63 64 65 61 65 67 65 64 68 71 71 73 72 74 73 73 76 74
67 66 65 64 65 65 65 65 65 66 65 65 66 66 66 68 67 68 66 66 66 65 65 66 66 67 67 67 68 68 67 67 66 66 65 66 66 66 66 66 64 64 62 61 62 62 62 61 60 61 65 67 66 66 69 73 73 76 76 74 73 73 72
66 66 65 64 65 64 64 64 65 65 65 65 65 65 66 67 66 65 66 65 65 65 65 66 66 68 67 67 67 67 67 67 68 66 65 65 65 65 65 66 65 66 66 65 65 65 63 61 63 62 62 66 67 69 73 71 75 76 76 76 75 74 74
66 66 66 65 65 64 64 64 64 63 64 65 64 64 64 66 64 64 64 64 64 65 65 65 65 66 65 65 66 66 67 67 66 67 65 64 65 65 65 66 66 66 66 67 67 66 66 65 64 61 63 65 61 63 68 67 69 76 77 76 76 75 75
65 66 66 65 65 65 66 64 64 64 63 63 64 63 65 65 65 65 64 63 64 64 64 64 64 65 65 65 65 65 65 66 67 67 66 66 65 65 67 66 66 66 65 66 67 67 66 64 62 62 63 64 64 63 66 64 67 67 74 77 78 78 76
65 65 65 67 65 65 65 65 65 65 64 65 65 65 65 65 64 64 63 62 62 63 63 63 64 64 64 65 65 64 65 66 67 66 66 66 67 66 65 66 66 66 66 66 66 67 67 66 65 64 63 60 60 62 62 64 62 63 65 75 78 77 75
66 66 65 66 66 65 65 65 64 64 65 65 65 65 66 65 64 63 62 62 63 62 62 62 62 63 63 62 62 63 63 67 65 66 66 66 66 66 66 66 65 65 66 67 67 66 66 67 67 65 63 61 58 57 60 60 61 61 65 63 73 77 76
65 64 64 64 64 65 65 64 64 64 65 65 65 66 64 64 64 63 61 61 61 61 61 61 61 61 62 62 63 63 63 65 65 65 65 66 66 66 67 66 65 65 65 67 68 67 67 66 67 65 65 63 63 59 57 57 58 59 63 65 65 73 77
64 64 65 64 64 64 63 63 63 63 63 64 64 65 64 63 62 63 61 61 61 61 60 61 61 61 61 60 61 61 63 64 63 64 64 65 66 67 67 67 67 66 66 65 66 67 67 67 66 66 65 65 64 61 60 58 59 62 61 63 64 67 74
64 64 64 64 64 63 62 63 63 63 64 64 63 63 62 61 61 61 60 60 60 60 60 60 60 60 60 59 59 59 61 62 62 62 64 65 65 66 66 66 67 66 67 65 65 66 66 67 67 67 66 66 64 64 62 61 57 62 65 60 62 67 68
65 65 64 63 63 62 63 63 63 62 62 63 62 62 61 61 60 59 60 59 59 59 59 60 59 59 59 59 59 59 60 60 60 61 62 64 66 66 66 66 66 66 67 66 66 66 65 67 68 67 68 66 65 65 63 61 59 59 63 63 62 64 68
64 64 64 63 62 62 62 62 62 62 63 61 62 61 60 60 60 60 59 59 59 58 58 57 58 58 57 57 58 59 59 59 59 60 61 61 63 64 65 65 66 68 68 67 67 67 67 67 67 67 67 65 65 65 64 62 60 60 62 64 62 63 65
64 64 63 62 62 62 62 61 61 62 60 60 61 60 61 60 60 60 59 58 58 58 58 58 58 58 57 56 56 57 57 58 57 58 58 59 60 61 61 62 64 66 68 68 67 68 69 68 68 66 66 67 65 65 65 63 62 60 59 62 61 63 62
64 63 62 62 62 62 62 62 62 61 60 60 61 61 60 60 60 59 59 58 58 58 58 58 58 57 56 55 55 55 56 56 56 55 56 57 58 60 59 60 61 64 66 66 66 67 68 68 69 68 66 67 66 67 67 66 63 60 60 60 62 62 62
63 62 62 61 62 62 62 62 62 61 61 61 61 60 60 60 60 59 59 58 58 58 58 58 58 57 56 55 55 54 55 55 55 55 55 56 56 57 58 58 60 62 64 64 66 66 68 68 67 68 67 67 66 66 67 66 66 64 63 61 61 62 61
62 62 61 61 61 62 62 62 61 62 61 60 61 59 60 60 59 59 58 58 58 57 57 57 56 56 55 55 55 54 54 54 54 54 55 56 56 56 56 57 59 60 62 62 64 65 67 67 68 67 67 68 66 66 66 66 65 66 64 62 61 61 62
62 62 62 61 62 62 62 62 61 61 61 60 60 59 58 59 59 58 58 58 57 56 56 56 55 55 55 55 54 53 53 53 54 54 54 55 55 56 55 56 58 59 60 61 62 64 65 66 67 66 65 66 65 64 63 63 62 62 65 64 62 58 60
62 62 61 62 62 62 62 61 61 61 61 60 59 58 58 58 57 57 57 57 56 56 55 55 54 54 54 54 53 53 53 53 53 53 54 55 55 55 56 56 57 58 59 61 62 63 64 64 66 66 65 65 64 63 59 61 62 61 60 63 62 59 58
63 62 62 62 62 61 61 60 60 60 60 58 57 57 57 57 57 57 56 56 56 56 55 55 55 54 54 54 53 53 53 52 52 53 53 54 55 55 56 56 57 58 59 60 61 63 64 63 65 65 67 66 65 63 61 60 60 59 59 60 60 58 57
63 62 62 62 61 60 60 60 60 59 58 57 57 57 57 57 56 56 57 56 56 56 55 55 55 55 54 54 54 53 53 53 53 53 53 53 54 55 56 56 56 57 58 57 55 54 55 56 62 63 63 64 64 63 62 61 60 59 58 58 58 59 57
63 62 61 60 60 60 60 59 58 57 57 57 57 57 57 56 56 55 54 55 54 54 54 54 53 49 49 53 53 53 53 52 53 52 52 53 54 55 55 56 57 56 54 53 52 51 50 49 50 55 60 62 62 62 62 61 61 60 59 57 57 56 55
62 61 60 60 59 60 60 59 57 57 56 56 56 56 56 55 55 54 54 53 53 53 54 54 49 45 44 45 49 51 51 51 51 51 51 51 50 52 54 56 57 56 55 54 54 50 49 49 49 49 49 51 54 60 60 59 60 61 57 58 58 58 55
62 61 61 60 60 60 59 58 57 56 56 55 55 55 54 54 54 54 53 53 52 52 53 50 45 45 44 44 45 50 51 51 51 51 51 51 52 52 52 53 55 57 57 58 58 58 55 51 49 49 48 48 49 48 49 57 59 58 58 57 58 58 57
62 61 60 60 59 58 58 57 56 56 55 55 55 54 53 53 52 52 52 51 51 51 52 48 45 45 44 43 42 44 48 50 50 50 51 51 51 51 52 52 52 54 56 55 57 58 59 59 53 50 50 50 50 49 48 45 47 57 61 58 58 58 58
61 60 60 59 58 58 57 56 55 55 55 55 54 53 52 52 52 52 52 51 51 51 51 48 45 44 44 43 43 43 47 47 48 49 50 50 51 51 51 51 51 51 53 55 57 58 59 59 60 60 58 58 60 59 52 49 47 45 51 60 59 58 60
60 60 59 58 57 57 56 54 55 55 54 53 51 50 50 50 51 51 51 51 51 50 50 46 44 43 43 42 42 43 48 47 47 48 48 49 49 50 51 51 51 51 52 53 54 55 57 59 61 61 62 61 61 62 63 63 62 58 53 56 59 61 61
60 59 59 58 57 56 55 54 54 55 54 53 52 51 51 52 51 51 51 51 50 49 50 45 43 43 42 42 42 45 46 46 46 47 47 48 48 49 50 50 50 50 51 51 50 47 48 52 53 55 57 61 63 63 64 60 57 58 61 60 60 60 61
59 59 58 57 56 55 54 54 54 54 53 52 51 51 50 50 51 51 50 50 49 49 49 47 44 43 42 42 42 46 45 45 46 46 46 48 49 49 49 49 50 50 51 51 49 46 46 46 51 53 55 56 59 63 63 65 55 52 51 53 54 53 53
59 58 57 57 56 55 55 54 54 53 51 50 50 50 50 51 51 51 50 49 49 48 48 47 44 43 42 42 43 45 45 44 44 45 45 46 48 48 49 49 50 50 50 50 47 45 44 46 50 52 53 54 55 58 61 53 50 47 46 48 49 50 50
60 58 57 56 56 54 53 53 53 52 51 50 50 51 51 50 50 50 50 49 49 47 47 47 45 43 42 42 43 45 44 43 42 43 44 44 46 47 48 48 48 48 49 48 45 44 43 46 49 50 52 53 54 55 58 52 52 50 51 51 50 51 49
58 57 57 56 55 54 54 53 52 51 50 51 50 50 50 49 48 48 49 48 48 47 46 47 46 43 43 42 42 44 44 43 41 42 43 43 43 45 46 47 47 44 42 42 42 42 43 43 46 48 49 50 53 54 56 54 54 54 53 53 52 52 51
57 57 57 55 55 54 53 52 52 51 49 50 49 48 48 48 48 47 48 47 47 47 47 46 46 43 42 42 41 41 43 42 42 41 42 42 43 43 44 46 47 45 43 42 42 42 42 43 43 47 48 47 50 50 49 55 51 48 51 49 48 48 48
58 57 57 55 53 53 53 53 52 50 50 49 48 48 47 47 46 46 46 46 46 46 47 46 46 44 42 41 41 41 41 42 42 42 41 41 42 42 43 45 46 46 43 42 42 41 42 42 42 46 47 45 45 44 49 53 52 50 49 48 47 45 45
57 58 57 55 54 52 53 53 50 50 48 47 46 45 45 45 44 44 44 44 45 45 45 46 44 43 42 41 41 40 40 40 40 41 40 40 41 42 44 45 47 45 43 42 42 41 41 42 42 45 44 43 43 43 45 51 48 50 48 47 46 45 44
60 58 57 56 55 52 52 51 50 50 48 46 45 44 44 44 43 42 41 41 42 43 44 44 43 41 41 40 40 40 39 38 38 39 40 40 41 43 44 45 46 44 43 42 42 42 42 42 43 43 43 43 43 43 48 50 48 49 45 45 44 44 44

ECMWFFLT1_sfc_temp_003.txt.gz
Temp
58 58 58 58 58 59 58 59 59 60 60 61 61 61 62 64 61 61 60 60 61 63 63 62 61 62 63 64 64 63 64 63 62 62 62 63 62 62 63 63 63 64 66 66 64 61 59 57 60 66 68 68 69 71 71 71 71 71 68 69 72 71 69
59 60 59 61 58 58 57 57 57 59 59 60 60 61 61 62 62 60 59 59 59 59 61 62 61 63 62 61 62 62 62 62 62 63 62 62 63 62 61 61 62 61 62 63 64 63 59 58 58 61 63 67 66 66 68 70 71 71 70 70 72 73 70
60 59 58 57 57 57 56 57 57 58 58 59 59 58 60 60 59 60 58 58 58 59 61 60 60 61 61 61 61 61 62 62 62 63 63 64 64 64 63 62 61 60 60 60 60 61 61 61 57 58 61 61 61 63 65 66 68 69 70 70 70 72 71
58 58 57 57 57 56 57 57 56 57 57 60 60 58 60 61 60 60 58 59 59 59 59 59 59 60 60 60 61 61 61 61 61 62 62 62 63 63 63 62 61 62 60 59 59 60 60 58 57 58 61 63 63 62 62 66 67 70 71 71 71 71 71
59 59 58 57 56 57 56 57 56 56 56 58 57 57 58 59 58 57 59 58 58 57 57 58 58 59 59 60 60 60 60 60 61 61 62 62 62 62 62 62 63 63 62 62 63 61 60 59 59 58 58 62 63 63 66 64 64 67 70 72 72 72 72
58 58 57 57 57 56 56 56 56 56 56 57 57 57 57 57 56 56 56 56 55 57 57 57 57 58 59 59 59 59 59 59 59 59 59 60 62 61 62 63 63 62 63 64 63 62 61 61 59 58 59 61 59 60 63 64 62 65 69 70 72 73 73
58 58 56 58 57 57 57 56 55 55 55 55 55 55 57 57 56 56 56 56 56 56 57 56 56 56 57 58 59 59 59 59 59 59 59 60 60 62 62 61 62 63 64 64 64 63 62 60 59 59 60 60 61 61 63 63 63 63 64 67 71 73 74
58 57 56 58 58 57 57 57 57 54 54 55 54 56 56 55 55 56 56 57 57 56 56 55 57 55 55 57 58 58 58 58 59 59 59 59 60 61 61 61 62 62 62 63 64 64 64 63 62 61 60 58 57 58 59 61 60 61 63 65 69 70 72
59 58 57 57 57 56 56 56 55 54 54 54 55 55 56 55 55 55 56 56 56 55 55 56 55 55 55 55 55 56 56 60 59 59 59 59 59 59 59 61 61 61 62 64 64 64 65 64 64 62 60 59 57 55 56 56 57 59 64 63 65 65 65
58 57 57 55 56 56 56 54 54 55 55 54 56 55 55 54 54 54 55 55 55 55 55 55 55 54 54 54 55 54 55 56 57 57 58 58 58 59 59 59 60 61 62 63 63 63 63 63 64 64 63 61 59 57 55 55 56 56 60 64 62 63 66
58 57 57 56 56 56 54 54 54 55 55 55 56 57 54 54 55 59 54 54 54 54 54 54 54 54 54 53 53 54 55 55 55 56 57 58 58 59 59 60 60 60 61 62 62 63 63 64 64 64 63 63 61 59 58 56 57 59 58 61 64 62 65
57 57 56 56 56 56 55 53 54 54 54 54 54 54 54 54 54 54 54 53 53 54 53 53 53 52 52 51 52 52 53 54 53 54 55 56 57 58 58 59 60 60 62 62 62 62 63 63 64 64 64 63 62 61 60 58 55 59 62 59 61 64 63
57 57 55 56 56 55 55 54 53 53 54 54 53 54 54 54 54 54 53 53 53 53 52 52 52 52 51 51 51 52 52 53 53 53 54 56 57 57 57 57 58 59 60 61 62 62 62 63 64 64 64 63 63 62 61 59 57 58 60 60 60 62 64
57 56 55 55 55 54 54 55 53 53 53 54 53 54 54 53 53 53 53 53 53 52 52 51 51 51 51 50 50 51 51 53 53 53 53 53 55 55 56 56 56 58 59 59 60 61 61 63 63 63 63 63 62 63 61 59 58 58 61 59 60 61 63
57 56 55 54 55 54 54 53 52 53 52 52 53 52 52 52 53 52 51 51 51 51 51 51 51 50 51 50 49 52 51 51 51 52 52 52 53 54 54 53 54 55 57 58 59 60 61 60 62 63 63 62 62 62 63 60 59 58 58 58 59 60 61
56 55 55 54 54 54 53 53 53 53 52 51 52 52 52 51 52 51 51 50 50 50 50 50 50 50 50 49 49 49 51 50 51 51 52 52 53 53 52 52 53 54 55 55 56 58 60 61 61 62 63 64 63 63 64 62 59 58 58 59 59 59 59
56 55 55 54 54 53 53 53 53 53 53 52 52 52 51 51 51 51 51 50 50 49 50 50 50 50 50 49 49 50 50 50 51 51 52 53 54 53 53 52 52 53 54 53 54 56 58 59 60 61 61 62 62 63 63 63 63 61 61 60 59 60 59
55 54 54 53 54 53 53 53 52 53 52 52 51 51 52 52 52 51 51 50 50 49 50 49 49 49 49 49 50 50 50 51 51 52 53 53 54 54 53 53 53 53 52 52 52 54 56 56 59 61 61 62 61 62 62 63 62 62 61 60 60 60 60
55 54 54 54 54 54 54 53 52 52 52 51 51 51 50 51 52 51 50 50 49 49 49 49 49 48 48 49 50 50 51 52 52 53 53 53 53 54 53 53 54 54 53 51 51 53 54 55 57 58 60 61 61 60 60 62 61 61 61 61 61 58 58
55 55 54 54 54 53 53 53 52 52 52 51 50 50 50 50 50 51 49 49 49 49 49 49 48 49 50 50 50 51 52 52 52 52 52 53 53 53 53 54 54 54 53 52 51 52 53 54 55 56 58 59 61 60 59 59 59 59 59 59 59 59 58
55 55 54 54 54 53 52 51 51 51 51 49 49 49 50 51 49 49 48 48 48 48 48 47 48 48 49 49 50 52 52 52 52 52 52 53 53 53 53 53 53 54 54 54 53 53 53 53 54 54 56 57 58 58 58 58 57 57 58 58 58 57 57
55 55 54 54 53 52 52 50 50 50 49 49 50 50 50 50 49 48 48 48 48 48 49 49 49 49 48 48 50 51 52 52 52 52 52 52 53 53 53 53 53 53 54 54 51 51 52 52 52 51 53 53 53 53 54 56 57 56 56 56 57 58 56
55 54 54 53 52 51 50 50 49 48 49 49 49 49 49 48 48 47 47 46 46 47 48 48 50 47 46 48 48 50 50 51 52 52 51 51 52 52 53 53 53 53 51 50 49 48 47 47 49 51 52 53 52 52 52 52 54 56 57 57 57 57 55
54 53 52 52 50 51 50 50 48 48 48 48 48 47 48 46 46 47 47 46 45 46 47 49 47 44 44 44 46 47 47 47 48 49 49 49 49 50 51 52 52 53 52 51 52 48 46 46 46 46 46 47 49 51 50 50 51 53 55 56 57 56 55
53 52 52 51 50 50 49 48 48 47 47 47 47 47 46 45 46 46 47 46 45 45 46 47 45 44 44 44 45 46 45 45 45 46 46 47 48 49 50 51 52 52 52 52 53 53 51 48 45 45 45 46 46 46 47 50 51 51 52 54 56 56 55
52 51 51 50 50 49 48 47 46 46 46 45 46 46 45 45 45 45 45 44 43 45 45 46 44 44 43 43 43 44 46 46 45 45 45 45 46 47 48 49 50 51 52 51 52 52 52 52 50 48 46 46 46 46 44 43 45 51 54 53 54 55 56
51 50 50 49 48 47 47 45 45 45 45 46 43 43 44 45 44 43 43 43 44 44 45 46 44 44 43 42 42 42 44 45 45 45 45 45 45 46 46 47 47 48 50 51 52 51 51 51 51 52 53 54 54 53 49 46 44 42 47 53 53 54 56
50 49 49 48 46 45 46 44 46 45 45 43 42 43 42 43 42 43 42 43 43 44 46 45 43 43 42 42 41 41 42 43 44 44 45 45 45 46 46 46 46 47 48 49 50 50 50 50 50 50 51 51 52 52 53 55 56 54 49 49 53 55 56
50 48 47 46 46 45 44 44 44 44 43 42 42 42 41 42 41 40 41 42 42 43 44 43 42 42 41 41 41 43 43 43 43 44 44 45 45 46 47 47 47 47 47 48 47 45 46 49 49 49 48 48 49 51 52 51 50 50 54 56 55 55 57
50 48 47 45 44 44 44 44 44 43 41 40 41 42 42 41 41 41 41 41 41 42 42 43 42 42 41 41 41 43 43 43 44 44 45 45 46 46 46 46 46 46 47 47 46 43 43 44 48 48 47 47 48 48 49 52 50 49 48 46 48 49 49
49 47 45 45 44 44 43 42 42 42 41 40 40 41 41 40 40 40 41 42 43 43 43 44 43 42 41 41 42 42 42 42 42 42 43 44 45 45 46 47 48 47 46 47 45 42 42 44 46 47 47 46 46 46 48 50 52 53 50 48 46 45 46
47 46 46 45 44 43 42 44 41 41 40 39 41 40 41 39 38 40 41 42 46 45 43 44 43 42 42 42 43 42 41 41 41 42 42 42 43 43 44 45 46 46 46 46 43 42 41 44 46 47 47 46 45 45 46 48 49 51 52 52 53 51 48
46 46 45 44 44 43 42 42 40 40 39 40 41 39 40 39 38 38 40 41 43 43 43 43 44 42 42 42 42 42 42 41 40 41 42 42 41 42 43 44 45 42 41 41 41 41 41 41 44 46 47 46 45 44 47 48 49 49 49 50 51 53 53
48 46 45 43 42 43 43 42 40 39 39 38 37 38 38 38 38 39 40 41 41 42 43 43 43 42 42 42 41 41 42 42 41 41 41 40 41 40 41 42 44 43 41 41 41 41 41 41 42 45 46 46 46 47 46 46 46 45 48 48 49 50 51
48 48 45 44 43 42 41 41 42 39 38 37 37 38 37 37 37 38 39 40 41 41 43 44 43 42 41 41 41 40 40 41 41 41 39 39 39 39 40 41 42 43 41 41 41 41 40 40 40 44 45 43 43 42 45 46 46 46 46 46 46 47 49
48 49 47 45 43 42 40 42 40 39 37 36 37 37 35 35 35 37 38 39 39 40 41 42 42 41 41 40 40 40 39 39 39 40 38 37 37 39 40 41 42 41 40 40 40 40 40 40 40 43 41 41 41 41 42 44 43 43 44 44 45 46 47
46 46 45 45 44 42 40 41 40 40 37 36 36 34 34 35 34 35 36 38 38 38 39 40 40 40 40 39 39 39 38 38 38 39 39 38 39 39 39 40 41 40 39 40 39 39 40 40 41 41 40 40 40 41 43 42 41 42 42 43 43 45 46

ECMWFFLT1_sfc_temp_006.txt.gz
Temp
56 56 54 54 53 55 55 56 56 57 58 58 57 58 57 58 57 56 56 56 57 58 60 58 57 58 59 60 59 59 59 60 59 60 60 61 61 61 62 62 62 62 62 62 60 58 55 54 57 60 61 63 65 67 69 69 68 68 66 66 68 67 66
56 57 55 56 55 55 54 55 55 56 57 57 58 57 57 58 59 57 55 55 56 56 59 59 58 58 57 57 58 58 57 58 59 60 60 61 62 61 62 62 62 61 61 61 61 61 58 55 56 57 59 61 62 63 65 67 68 67 68 68 69 69 67
56 54 54 55 54 54 54 53 54 55 56 56 56 55 55 56 55 56 55 54 54 57 58 55 56 57 57 56 56 57 57 56 57 58 59 60 61 61 61 61 60 60 60 60 60 60 59 59 57 57 57 58 58 59 61 63 66 66 67 67 67 69 69
55 55 54 53 53 53 54 53 53 54 55 55 55 56 55 55 55 57 54 55 55 56 56 55 54 55 56 56 57 56 56 56 56 57 57 58 60 60 61 62 61 61 60 59 59 60 59 57 56 57 58 60 59 59 62 64 64 67 67 66 66 67 69
57 56 56 55 54 54 54 54 53 53 54 55 55 55 57 54 55 54 54 53 55 54 55 55 55 55 55 55 55 56 56 56 56 56 55 56 57 58 60 61 61 61 61 61 61 60 59 59 58 58 57 59 60 60 64 64 66 66 66 68 68 68 68
57 57 56 55 55 55 54 54 53 53 53 54 54 54 54 54 54 53 53 52 52 53 53 54 54 54 54 54 55 55 55 54 54 55 54 55 55 56 57 59 60 60 60 62 62 60 60 61 60 57 59 59 57 57 59 61 60 64 68 68 68 68 69
56 56 56 56 55 55 55 55 54 54 53 55 54 54 55 53 54 54 53 52 52 52 54 53 53 53 53 53 53 53 54 54 54 53 54 54 55 56 57 57 59 60 61 61 61 61 60 60 58 58 58 57 57 58 59 59 62 63 62 65 68 69 69
57 56 56 57 56 55 54 55 55 54 53 54 53 55 54 53 53 52 52 51 53 52 52 52 54 53 52 53 53 53 53 54 54 54 53 53 55 55 55 56 57 58 59 61 61 61 61 60 60 60 58 56 57 57 57 58 58 60 63 62 66 68 69
57 56 55 56 56 56 55 56 54 53 54 53 53 54 53 53 53 53 53 51 51 51 52 54 53 52 52 52 52 51 51 55 53 52 53 53 53 53 54 55 55 56 58 59 60 61 61 61 61 61 60 58 56 55 57 56 56 58 61 61 63 64 64
56 56 55 55 55 55 55 55 54 54 53 54 54 54 53 51 52 51 51 51 51 51 51 52 52 51 51 50 50 50 50 51 52 51 52 52 53 53 53 54 54 55 56 58 59 60 60 60 60 61 61 59 58 55 55 55 57 55 58 61 60 61 65
57 56 55 55 55 54 53 54 53 53 54 55 55 55 53 52 52 55 51 51 50 51 51 51 52 51 50 50 49 49 50 50 50 50 51 52 52 52 53 53 54 54 55 56 57 58 59 59 60 60 60 60 59 56 56 55 57 58 54 56 61 60 61
56 56 55 55 55 55 54 54 54 54 53 53 54 53 52 52 51 51 49 49 49 50 49 49 49 49 50 49 49 50 49 49 49 49 50 50 52 52 51 52 53 53 54 54 55 56 57 58 59 60 60 60 60 59 57 56 54 60 62 58 58 61 61
56 56 55 54 54 55 55 54 53 52 52 53 52 52 52 51 51 49 49 49 49 48 48 49 49 50 48 48 48 49 48 49 49 48 49 50 52 51 51 51 51 52 53 53 53 54 55 56 58 58 60 60 60 60 58 57 55 56 60 59 58 59 61
55 55 54 54 54 54 54 54 53 53 51 52 51 51 50 49 49 49 48 49 48 47 48 48 47 48 48 48 48 48 47 48 48 48 48 49 50 51 51 51 51 51 51 51 52 53 53 54 55 55 57 58 59 60 59 58 56 56 60 60 60 60 60
55 54 54 53 54 53 53 52 52 51 52 51 51 50 49 48 48 48 48 48 47 47 48 48 47 48 47 47 46 48 48 47 46 47 47 48 48 50 50 50 50 51 51 51 51 52 52 52 53 53 54 56 56 58 60 58 58 57 57 60 58 58 58
54 53 53 52 53 53 52 51 52 52 51 50 49 49 49 48 49 47 48 48 47 47 47 47 47 47 47 46 46 46 47 46 46 47 47 47 48 48 48 49 50 51 51 50 50 51 51 52 53 53 53 55 55 56 59 59 58 57 58 59 60 58 58
54 53 53 52 52 52 52 51 52 52 51 49 50 49 48 48 48 47 48 47 46 47 46 46 47 47 47 47 46 46 45 45 46 47 47 47 47 48 49 49 50 51 51 50 50 50 50 51 51 52 52 54 54 55 57 59 59 57 58 57 58 58 58
54 53 53 52 52 52 51 51 51 51 50 49 49 48 49 47 46 46 48 46 46 45 46 46 46 46 45 46 46 46 46 45 46 47 47 48 51 51 51 51 51 52 51 51 51 50 50 49 51 51 51 52 54 55 56 56 57 58 57 56 57 58 58
54 53 53 52 52 52 52 51 50 50 50 49 47 47 47 47 48 45 45 45 46 47 46 46 46 45 45 45 46 46 47 47 47 48 49 50 51 52 52 52 52 52 52 51 51 51 51 50 50 50 50 51 52 53 53 54 55 56 57 56 57 56 56
54 53 52 52 52 51 51 50 50 50 49 49 48 46 46 46 47 45 45 45 45 46 46 46 46 45 45 44 45 45 46 46 47 48 50 52 52 52 52 52 52 52 51 52 51 51 51 50 50 49 50 50 52 52 50 50 51 51 53 55 56 56 56
53 52 52 52 52 51 51 49 49 48 49 47 47 47 46 46 46 45 44 45 46 45 45 45 44 44 44 44 44 44 44 45 46 47 49 51 52 52 52 53 52 53 52 52 52 52 52 51 51 50 50 50 50 50 49 48 48 49 50 51 53 55 56
52 52 52 51 51 50 50 49 48 48 47 46 48 46 45 45 44 45 44 45 44 45 45 45 45 45 44 44 43 44 44 45 45 46 46 47 49 50 51 52 52 52 53 52 50 49 50 49 50 50 51 51 49 49 48 48 48 48 48 50 50 53 55
52 52 51 51 50 49 49 48 48 46 46 46 46 45 44 45 45 45 45 44 44 45 45 45 47 47 46 45 44 45 44 44 44 44 45 45 45 46 47 48 50 51 50 49 48 47 46 46 47 49 50 51 50 49 48 47 47 47 47 47 48 49 51
52 52 51 50 48 49 48 48 47 46 45 45 45 46 45 45 43 43 43 43 43 42 43 46 46 43 43 44 45 44 44 44 44 43 43 43 43 44 45 46 46 49 50 49 49 46 45 45 45 45 45 46 47 49 48 47 47 47 46 46 47 48 48
52 50 51 50 49 49 48 46 45 44 44 44 45 44 44 43 41 42 42 42 42 42 43 46 43 43 43 43 44 45 44 43 44 43 43 43 43 44 44 44 45 47 47 48 49 49 48 46 44 44 44 43 43 43 44 46 47 47 47 46 46 47 48
51 50 51 50 49 48 46 45 43 43 44 43 43 44 41 41 43 42 42 42 41 42 42 44 43 43 43 42 42 43 43 42 42 42 42 42 42 43 43 44 44 45 46 48 49 47 47 48 47 46 45 45 45 44 43 42 43 47 49 48 47 47 48
50 50 50 50 49 47 45 44 42 42 42 41 39 39 40 42 41 40 40 41 40 40 41 43 42 42 42 42 41 41 41 41 41 41 42 42 43 43 43 43 43 43 44 45 45 45 46 46 46 47 48 49 50 49 46 44 43 42 44 47 48 48 51
50 49 50 49 47 45 44 41 42 40 40 40 41 40 39 41 40 41 40 39 39 39 42 43 41 41 41 41 41 40 40 41 41 41 42 42 42 42 42 43 43 43 43 44 45 46 46 46 46 46 46 46 48 49 50 50 50 50 49 46 47 48 50
49 49 49 47 46 44 43 43 41 41 40 38 37 38 38 39 39 38 37 37 37 38 40 41 41 41 41 40 41 41 40 40 40 40 41 41 42 42 42 43 42 42 43 44 45 43 44 46 46 45 45 45 46 46 47 48 47 48 49 51 52 51 51
49 49 48 47 46 44 42 41 41 41 40 39 38 38 39 37 37 36 37 38 37 38 39 41 41 41 41 40 40 40 40 40 40 40 40 41 41 42 42 43 42 42 42 43 43 42 42 42 44 44 44 44 45 45 46 48 47 45 45 44 44 43 43
50 48 47 45 42 41 42 42 42 41 40 39 38 38 37 36 35 36 38 37 37 39 40 42 42 41 41 40 41 40 40 40 39 39 39 40 41 41 42 45 46 43 42 43 42 41 41 42 43 43 43 43 43 44 45 47 48 48 46 45 45 44 43
50 47 45 44 45 44 43 43 41 39 39 38 38 37 38 35 35 34 34 37 44 42 40 42 42 41 41 40 41 41 40 39 38 38 38 39 40 40 41 43 44 43 43 43 41 40 40 42 43 43 43 43 42 42 44 46 46 46 46 46 46 46 46
48 48 46 45 45 44 42 40 39 39 38 38 39 35 37 34 34 34 35 37 39 39 39 40 41 41 41 41 41 41 40 38 37 37 38 38 38 39 40 40 42 40 40 39 39 39 39 39 41 43 43 42 41 41 45 46 47 47 46 46 45 46 46
49 48 47 46 45 44 42 41 39 38 38 37 36 35 34 34 34 33 34 35 36 37 39 40 40 41 41 41 40 40 39 38 38 38 38 38 38 38 39 40 40 41 40 40 39 39 39 39 40 42 42 42 43 44 45 45 45 44 46 46 45 44 44
49 47 46 44 43 43 41 41 41 39 37 36 34 34 33 34 33 33 35 35 35 37 39 42 40 41 40 40 40 40 39 39 40 39 38 38 38 38 39 39 40 40 39 39 39 39 39 39 39 41 42 41 41 40 43 45 45 45 45 44 43 42 42
48 47 46 45 45 44 40 40 38 37 36 34 34 33 32 31 33 33 33 34 34 35 36 38 40 39 40 39 39 39 39 39 38 40 38 36 37 38 39 39 40 40 39 38 38 38 38 38 39 40 39 39 39 39 40 43 43 43 43 43 42 40 41
48 47 47 45 44 42 38 38 37 38 35 35 33 33 31 31 31 31 33 33 34 34 35 35 38 39 39 39 39 38 38 38 38 38 39 37 38 38 38 39 39 38 38 38 38 38 38 38 39 38 38 38 38 39 41 41 41 41 40 40 40 40 40

ECMWFFLT1_sfc_temp_009.txt.gz
Temp
55 55 52 52 51 53 52 54 54 54 53 53 54 53 54 56 55 54 54 55 56 57 57 56 55 55 57 57 58 57 58 58 59 59 59 60 58 59 62 60 59 61 61 61 60 57 56 54 57 59 60 59 61 64 65 67 66 65 63 63 65 65 64
54 53 52 55 53 53 52 54 54 54 52 53 54 54 54 56 57 54 53 54 55 56 57 55 55 55 55 55 55 56 55 55 57 58 58 57 58 58 58 60 61 61 62 61 61 60 57 55 56 57 59 60 60 60 62 63 64 64 65 65 65 66 65
53 51 52 52 52 51 52 52 53 54 53 53 52 53 53 54 54 54 53 53 53 55 55 53 53 53 54 54 54 54 54 54 54 55 56 56 56 57 57 57 57 59 60 60 60 60 59 58 56 57 58 57 57 58 58 61 61 62 64 64 64 65 65
52 53 52 51 51 51 52 51 51 52 52 53 52 53 52 52 53 54 53 53 54 55 53 52 52 52 52 52 52 52 53 53 53 54 54 55 55 55 55 56 56 57 57 56 58 59 59 57 57 57 58 60 59 59 63 63 62 64 66 65 64 64 65
54 54 54 53 52 52 51 52 51 52 52 52 51 53 52 52 52 51 51 51 53 51 51 52 52 52 52 52 52 52 52 51 52 53 52 52 53 53 54 55 55 56 57 57 58 59 58 58 58 57 58 59 59 59 63 62 64 65 65 66 66 65 65
55 55 55 54 52 52 51 51 50 52 51 53 52 52 52 51 52 51 51 51 51 52 51 52 51 51 51 51 51 50 50 51 51 51 51 50 51 52 52 54 55 55 55 57 59 59 59 59 58 56 59 60 57 57 59 60 59 61 65 65 65 64 65
55 55 54 55 53 53 52 53 52 52 52 53 51 51 51 50 51 52 51 50 50 51 51 50 50 50 51 51 51 50 50 50 50 50 50 50 51 51 51 52 53 54 54 56 57 58 58 58 57 57 57 58 59 58 59 57 60 60 60 63 65 66 65
56 55 55 55 54 53 52 53 53 51 51 52 52 52 51 50 50 49 50 49 50 49 50 50 52 49 49 50 51 50 50 50 49 50 49 49 51 50 50 51 52 52 53 54 55 56 57 58 57 57 57 55 56 57 57 59 58 59 62 62 64 66 66
57 56 55 55 54 54 53 54 53 52 53 52 51 51 51 51 50 51 51 49 49 49 49 49 48 49 48 50 48 48 48 51 49 48 48 48 48 48 49 50 50 50 52 53 54 54 55 56 56 57 57 56 54 53 55 55 55 56 60 59 60 63 64
55 55 55 54 54 53 53 53 53 52 51 51 52 51 51 49 49 49 49 49 48 48 48 49 48 48 48 48 48 48 48 48 49 48 48 48 48 49 49 49 49 50 50 51 52 53 53 53 54 56 57 56 55 53 53 53 55 55 56 59 57 58 62
56 56 56 55 53 53 52 53 51 52 51 52 53 54 50 49 50 52 48 48 47 48 47 48 47 47 48 47 46 48 48 47 48 48 49 49 48 49 49 49 48 49 50 50 51 51 52 52 52 53 54 55 56 54 54 53 55 57 56 55 59 58 58
55 56 55 55 54 54 53 52 52 52 50 51 53 51 50 49 49 48 47 46 47 47 47 48 47 47 47 48 48 49 48 47 47 47 47 48 49 49 47 47 47 48 48 48 49 49 50 51 51 52 52 53 54 54 54 54 52 58 60 59 57 59 59
55 55 54 54 53 54 54 53 52 50 51 52 51 51 50 50 49 47 47 47 46 46 47 47 46 47 46 47 46 47 47 46 47 46 47 47 49 48 47 46 47 47 47 47 47 48 48 49 50 50 51 52 52 53 54 53 52 53 60 60 60 60 60
54 54 53 54 54 53 53 53 52 53 51 50 50 50 49 48 47 47 47 48 46 47 47 47 45 45 45 45 45 45 45 46 46 46 47 47 47 47 47 47 47 47 47 46 47 48 48 48 48 48 49 50 50 52 52 52 51 52 57 60 59 59 60
54 53 53 52 53 53 52 53 52 51 52 50 50 50 48 47 46 46 46 47 47 46 46 45 45 46 46 44 43 45 45 44 44 45 45 46 46 47 47 46 47 47 47 47 46 47 47 47 47 47 48 48 48 49 52 52 51 51 52 56 56 58 58
53 53 53 52 52 52 52 51 52 52 51 49 49 50 48 48 47 46 46 46 45 45 46 46 45 45 45 45 44 43 45 44 44 45 44 45 45 46 45 46 46 46 48 47 47 47 47 47 47 47 47 48 47 48 50 52 51 50 51 53 56 56 57
53 53 52 51 51 51 51 51 51 52 51 49 49 48 48 48 47 46 46 44 43 44 45 45 45 44 45 45 43 44 43 43 44 44 45 45 45 45 45 45 45 46 46 46 47 47 47 47 47 47 47 47 47 48 49 49 51 51 52 51 54 55 57
52 52 52 50 50 50 50 50 50 51 49 49 48 48 47 46 46 45 46 45 44 44 44 43 44 43 43 43 43 44 43 43 43 44 44 45 47 46 46 47 49 49 49 49 49 48 48 46 48 48 47 47 47 48 49 49 49 52 51 49 50 53 56
51 50 51 50 50 50 50 50 50 49 50 49 46 47 47 46 47 45 45 44 44 43 42 42 43 43 43 42 42 42 43 43 44 44 44 45 45 46 46 48 50 51 51 50 49 50 50 49 50 49 49 49 49 48 47 47 48 48 48 49 49 49 52
51 51 51 51 51 50 50 50 50 49 49 48 47 45 44 46 45 46 45 44 44 44 43 42 42 41 42 42 42 42 43 43 43 43 44 45 45 45 47 48 48 50 50 51 50 50 50 50 50 50 50 50 51 50 48 47 46 46 46 47 48 49 49
53 53 52 52 52 51 50 49 49 48 48 47 46 46 46 46 45 45 45 44 44 43 42 42 41 41 41 42 42 43 43 43 43 43 43 44 45 45 45 46 46 47 47 48 49 50 50 50 50 49 50 50 50 49 48 48 47 46 46 46 45 45 47
51 52 52 52 52 52 51 50 48 48 47 47 47 46 46 45 45 43 42 43 43 43 43 43 43 43 42 42 41 42 43 43 43 43 43 43 43 44 44 45 45 45 48 50 48 47 47 47 47 47 48 48 48 47 46 47 47 46 46 45 45 46 45
52 51 51 51 52 52 51 50 49 48 46 46 46 45 45 44 44 43 42 41 40 42 42 42 46 46 45 44 43 43 43 43 42 42 42 42 42 42 43 43 45 49 48 48 46 45 44 45 46 46 46 47 47 47 46 46 46 46 45 45 45 45 44
51 51 51 51 51 51 50 49 48 47 46 46 46 46 44 43 41 41 42 41 41 41 42 44 45 42 41 43 43 42 41 41 41 41 41 41 41 42 42 42 42 45 47 46 46 45 43 43 43 43 43 44 45 46 46 45 45 45 44 45 46 45 45
51 51 51 51 50 51 50 49 48 47 46 46 45 44 42 41 41 41 41 39 39 41 42 45 42 41 41 41 43 43 41 41 41 41 41 40 41 41 41 41 42 43 44 44 45 45 45 44 43 43 43 42 42 42 43 45 45 45 45 45 44 45 45
50 49 50 50 49 49 48 48 46 46 47 47 44 42 41 42 42 40 41 39 39 40 40 43 41 41 41 41 41 42 41 40 40 40 40 40 40 40 40 41 41 42 43 46 47 45 44 44 44 43 43 43 43 43 41 40 41 45 47 45 44 44 45
51 50 50 49 49 48 48 47 46 47 46 43 42 42 41 42 41 40 38 38 38 38 37 42 41 41 41 41 40 41 40 40 39 39 40 40 40 40 40 41 41 41 41 42 43 42 42 42 42 43 43 43 43 44 43 42 42 41 42 45 45 45 47
49 50 50 49 49 48 47 45 45 45 44 43 42 42 42 42 40 39 39 37 36 37 39 41 40 41 41 41 40 40 39 39 39 39 39 39 40 40 40 40 40 40 41 40 42 42 41 41 41 42 42 42 43 43 44 44 45 46 46 46 46 46 47
46 46 47 47 47 46 45 44 43 42 41 40 41 41 40 41 40 39 38 35 36 35 36 39 40 40 40 40 40 40 38 38 38 38 38 39 39 40 40 40 40 40 40 40 42 41 42 43 41 41 40 41 41 42 43 45 45 45 47 47 47 48 49
46 46 46 46 44 44 44 42 41 42 42 41 41 41 40 39 40 39 37 35 34 34 34 39 40 40 40 40 40 38 37 37 37 37 38 39 39 39 40 40 40 40 40 40 41 40 40 41 40 40 40 40 40 41 41 44 44 43 43 43 43 43 43
49 48 48 46 44 43 42 42 42 43 43 40 39 40 39 39 38 38 37 35 35 34 34 38 40 40 40 40 40 38 37 37 36 37 37 38 38 38 39 43 44 41 40 40 41 39 39 40 39 39 39 39 38 38 40 42 43 44 43 43 42 42 42
49 47 46 44 43 43 43 43 42 41 42 41 41 38 40 39 37 35 36 36 41 39 34 37 40 39 40 40 40 38 37 36 36 36 36 36 37 38 38 41 42 42 42 41 40 39 39 39 39 39 39 39 38 38 39 41 42 42 44 44 45 44 43
47 46 45 44 44 44 43 42 41 41 40 39 38 36 39 37 37 37 36 37 37 36 35 34 36 39 40 40 40 40 38 36 35 36 36 37 37 39 40 40 41 40 39 39 39 38 38 39 39 39 40 38 38 37 41 41 42 43 43 44 44 45 45
46 45 45 45 44 43 43 42 40 39 38 36 35 35 36 36 36 35 34 33 32 32 34 34 36 39 39 40 40 39 37 37 36 36 36 37 38 38 38 39 39 40 39 39 39 38 38 38 39 40 39 39 39 40 41 40 41 42 42 43 43 44 44
45 45 45 45 44 42 41 41 41 39 38 35 35 34 33 35 34 33 32 32 32 32 35 40 35 39 39 40 39 39 38 38 38 37 36 37 37 37 38 38 39 39 39 38 38 38 38 38 38 39 39 39 39 38 40 41 41 41 41 41 42 42 43
46 46 44 44 43 41 38 38 36 36 35 33 33 32 32 31 32 32 32 33 31 30 31 34 39 37 39 39 39 39 38 38 38 38 36 36 37 37 39 39 39 39 38 38 38 37 38 37 38 38 38 37 37 37 38 39 39 39 39 39 39 40 41
45 44 44 43 44 41 38 38 37 37 34 35 34 34 32 33 31 31 32 33 35 31 31 31 36 38 38 38 38 38 38 37 37 37 37 36 37 37 37 38 38 37 37 37 37 37 37 37 37 37 37 37 37 37 38 38 37 38 37 37 37 38 39

ECMWFFLT1_sfc_temp_012.txt.gz
Temp
54 55 51 50 49 51 51 53 53 53 52 54 54 54 55 57 56 55 55 56 56 57 57 56 55 55 56 57 57 56 57 57 57 57 57 58 57 57 59 60 61 62 62 61 61 57 56 55 59 65 65 61 62 64 65 66 66 66 65 65 67 67 67
53 53 53 54 52 52 51 52 53 52 52 52 53 54 55 56 57 55 55 55 55 55 56 55 55 55 55 55 55 55 54 55 56 57 56 56 57 56 57 57 59 59 60 61 62 61 57 56 56 58 60 63 64 64 62 63 65 65 66 66 67 68 67
53 50 51 50 50 50 52 51 51 52 52 52 52 53 54 54 54 55 54 54 54 55 55 53 53 53 53 53 53 54 54 54 54 55 54 55 56 56 56 56 56 56 57 59 59 59 59 59 55 57 59 58 58 61 64 65 67 66 65 65 65 67 67
50 51 51 50 50 50 52 51 51 51 51 51 53 53 53 54 54 55 54 54 55 56 54 53 53 53 53 53 53 53 53 53 53 53 53 54 54 54 54 55 55 56 55 55 56 57 57 57 56 57 59 61 60 59 64 66 65 67 68 67 66 66 67
52 53 53 52 51 52 51 51 49 50 51 51 51 52 52 53 54 53 54 53 53 52 53 53 53 53 52 52 52 53 52 52 53 53 52 52 53 53 53 54 54 55 55 55 56 57 56 56 56 56 56 59 59 61 64 63 66 66 67 68 68 67 66
53 54 54 53 52 53 51 51 50 51 50 53 51 53 52 51 53 51 51 52 52 53 52 52 52 52 52 52 52 51 52 52 51 52 51 51 52 52 52 53 53 54 54 55 56 56 56 57 57 55 58 60 56 58 61 62 61 65 68 68 68 67 68
53 53 53 54 52 53 52 53 52 53 52 53 52 52 52 52 52 53 53 52 52 52 52 52 52 52 52 52 51 51 51 51 51 51 51 51 51 51 52 52 52 53 53 54 55 55 54 54 54 53 53 56 58 58 60 59 61 62 62 65 68 69 68
54 54 53 54 53 52 51 53 52 51 53 52 53 53 52 52 51 51 52 51 51 51 51 52 52 51 51 52 52 51 51 50 50 51 50 51 51 51 51 51 52 52 52 53 54 54 54 54 53 53 53 51 53 57 57 60 59 60 63 63 68 69 68
56 55 54 54 53 53 53 53 53 52 53 52 51 52 51 52 51 51 52 50 50 50 51 51 50 51 51 51 50 50 50 52 50 50 50 50 50 50 50 50 51 51 52 53 53 54 54 54 54 54 54 53 50 50 54 55 57 58 60 62 62 64 66
54 54 54 53 53 52 53 53 53 53 51 51 52 52 52 50 51 51 51 50 50 50 50 50 50 50 50 50 50 49 49 49 51 50 49 50 50 50 50 50 51 51 52 52 52 53 53 53 53 54 54 53 52 49 49 51 54 56 59 61 61 62 64
55 55 54 53 52 52 51 52 51 51 51 52 53 53 52 51 51 53 50 50 49 50 50 50 50 49 49 49 49 49 48 49 49 49 50 50 50 51 51 50 50 50 51 51 51 52 52 52 52 53 53 53 53 50 50 48 50 56 56 59 60 61 63
54 55 54 54 52 52 52 52 52 52 51 50 52 52 50 51 51 49 50 49 49 49 49 49 49 48 48 48 49 48 48 48 48 49 49 50 50 50 49 49 49 50 50 50 50 51 51 52 52 53 52 52 52 52 51 51 47 55 60 57 58 61 61
54 54 54 53 52 53 53 52 52 50 51 52 51 52 51 51 51 50 49 50 49 49 48 47 47 47 47 47 48 48 47 47 48 48 48 48 49 49 48 48 49 49 49 50 50 50 50 51 51 52 52 52 51 51 51 50 48 49 57 57 58 60 62
53 53 53 53 54 53 53 53 52 53 51 51 51 51 51 51 50 50 49 50 50 49 47 46 47 48 48 47 47 47 47 47 48 47 48 47 48 48 48 48 48 49 49 48 49 50 50 50 50 50 51 51 50 51 50 50 48 49 54 58 58 58 60
54 53 53 52 53 53 52 52 52 51 52 51 51 51 51 50 50 49 49 48 47 47 47 47 47 48 48 47 47 48 47 47 47 47 46 47 47 48 47 47 47 48 49 48 48 49 50 49 50 50 50 50 50 50 52 49 48 47 47 53 54 57 57
53 53 53 52 52 52 52 51 52 52 52 50 50 51 50 50 49 49 48 46 46 47 47 47 47 48 46 46 47 46 46 46 46 46 46 46 46 47 46 47 47 48 48 48 48 49 49 49 50 49 49 50 49 49 50 51 49 46 47 49 53 53 55
53 53 53 53 53 52 52 51 52 52 52 50 51 50 50 49 49 48 48 46 46 46 46 47 46 46 47 47 47 46 46 46 45 46 45 46 46 46 46 46 47 47 48 48 48 48 49 50 50 50 50 50 50 50 50 50 50 48 48 47 50 52 53
53 53 53 53 53 52 51 51 52 52 50 50 50 49 49 49 48 48 48 47 46 46 47 47 47 46 45 45 46 46 45 45 45 45 45 45 47 47 46 46 47 48 48 48 49 49 50 49 51 51 50 51 51 51 51 51 50 50 48 47 48 50 52
53 53 53 52 52 52 52 51 51 51 52 51 49 50 49 48 50 48 47 47 47 47 46 46 46 46 45 45 45 44 44 45 45 45 46 46 46 46 46 47 47 48 48 48 48 49 49 49 50 50 50 51 51 51 50 50 50 49 49 48 48 47 50
53 52 52 52 52 52 52 51 51 51 51 51 50 49 48 48 48 48 47 47 47 47 46 45 45 44 44 43 44 44 44 44 45 45 45 46 46 46 46 47 47 47 47 48 47 47 48 48 48 48 49 49 50 49 49 49 49 49 48 47 48 48 48
53 53 53 53 52 51 51 51 52 51 51 50 50 49 48 48 47 48 47 48 47 47 45 44 42 42 43 43 45 44 44 45 45 44 45 45 45 46 46 46 47 47 47 47 47 47 47 47 47 47 48 48 48 47 47 47 47 47 47 46 46 46 47
52 52 52 52 51 52 51 52 52 51 51 50 50 49 49 48 46 46 46 46 45 45 44 44 44 43 43 44 43 44 44 44 43 43 44 44 44 45 45 45 46 46 48 48 47 47 48 47 47 46 46 47 46 46 46 46 46 46 46 46 45 47 46
52 52 52 52 52 53 52 51 51 51 50 50 49 48 48 48 48 47 45 44 44 45 44 44 47 45 45 46 44 43 43 43 43 43 43 43 43 44 44 44 45 47 47 47 46 45 44 44 45 47 47 47 46 45 45 44 45 45 45 44 45 45 44
51 51 52 52 52 51 50 50 51 50 49 49 48 48 48 47 46 46 45 45 44 44 44 45 44 41 42 42 43 42 42 42 42 42 42 42 42 43 44 44 44 45 46 46 46 44 43 43 43 43 43 44 45 46 44 43 43 44 44 44 45 45 44
50 51 51 51 50 50 49 49 48 48 47 47 47 47 47 46 45 44 44 44 44 44 44 45 41 41 41 41 42 44 42 41 42 41 41 41 42 42 42 42 43 44 44 45 45 45 45 43 42 42 42 41 41 41 42 44 44 43 43 42 43 44 45
50 49 49 50 50 50 49 49 49 48 47 47 46 46 46 45 44 44 44 44 43 44 44 43 41 41 40 40 40 41 41 41 41 41 41 41 41 41 41 42 42 43 43 44 46 46 45 45 43 42 42 42 42 42 40 39 41 44 45 43 42 42 44
49 49 49 49 49 49 49 48 46 46 46 45 45 44 44 44 44 43 44 44 44 43 43 42 40 40 40 40 39 40 41 40 40 40 40 40 41 41 41 41 41 41 42 43 43 43 43 43 43 44 44 44 44 44 42 41 40 39 42 44 44 42 45
48 48 49 49 49 49 49 47 47 46 45 45 44 43 43 44 44 44 44 43 42 42 42 42 40 40 39 40 39 40 40 39 39 39 40 40 40 41 41 41 41 41 41 41 42 42 42 42 42 42 42 42 43 44 44 45 45 45 45 45 45 45 45
48 48 48 49 48 48 47 48 46 45 45 44 44 44 44 44 44 43 42 41 42 41 40 39 38 39 39 39 39 41 39 38 38 39 39 40 40 41 41 41 40 40 41 41 41 40 41 42 42 41 41 41 42 43 43 44 44 44 46 46 46 46 47
48 48 49 48 48 48 47 46 44 44 43 43 42 43 43 43 44 42 40 40 41 40 39 39 38 39 39 39 39 39 38 38 38 37 38 39 40 40 40 41 41 40 40 41 41 39 39 40 41 40 40 40 41 41 42 44 43 42 41 41 42 42 42
48 49 48 48 48 46 45 45 43 44 43 42 43 44 43 41 40 41 41 39 40 40 39 38 39 39 39 39 40 39 38 37 37 37 37 38 39 39 40 41 43 42 41 41 40 39 38 40 40 40 39 39 39 39 40 42 43 43 42 42 41 41 41
49 49 48 48 46 44 43 43 42 43 42 43 43 41 41 39 37 38 40 40 42 40 37 39 40 38 38 38 40 39 38 37 36 36 37 38 38 38 39 40 42 42 42 41 39 39 38 40 40 39 39 38 37 37 39 41 41 41 42 42 43 44 43
49 49 48 46 45 43 43 42 42 43 42 42 41 39 39 39 39 38 38 39 40 40 38 37 39 38 39 39 39 40 39 37 36 37 38 38 38 39 39 40 41 39 38 38 38 38 38 38 39 40 39 38 36 36 40 40 41 41 41 42 42 43 43
49 49 49 46 45 44 44 43 43 43 41 40 40 39 38 37 38 38 37 37 37 37 37 37 37 38 38 39 39 39 38 37 37 37 37 37 37 37 38 39 40 40 38 38 38 38 38 38 38 39 39 38 38 40 40 40 40 40 40 40 40 41 41
46 45 44 44 43 44 43 44 43 42 40 39 39 38 37 37 37 37 37 35 36 35 36 40 37 38 38 38 38 39 38 38 38 38 36 37 37 37 37 38 39 39 38 38 37 37 37 37 37 39 38 38 38 37 39 40 40 39 39 39 39 39 40
45 44 43 43 42 41 41 42 41 40 39 38 38 38 37 37 36 37 36 35 35 35 34 36 39 38 38 38 38 38 38 38 37 38 36 35 35 36 37 38 38 38 37 37 37 37 37 37 37 37 36 36 36 36 37 38 38 37 37 37 37 37 38
44 43 43 43 42 39 39 39 38 39 39 39 38 37 36 35 35 35 36 37 36 36 34 33 35 36 37 37 37 38 37 37 37 38 38 36 36 37 37 37 37 36 36 36 36 36 36 36 36 36 36 36 36 36 37 36 36 36 35 35 35 35 36

ECMWFFLT1_sfc_temp_015.txt.gz
Temp
67 67 66 66 66 67 67 67 68 68 69 69 68 69 69 69 68 68 68 67 67 68 68 67 66 67 67 67 66 66 66 67 67 65 63 64 63 63 65 64 64 65 65 65 64 63 62 61 64 71 73 71 71 71 72 74 75 75 74 75 78 78 77
66 66 66 67 66 67 66 66 67 68 68 68 69 68 68 69 68 67 67 67 66 66 68 67 66 66 65 64 64 64 64 64 64 64 65 64 63 62 64 64 65 64 65 65 64 63 60 59 61 63 66 69 69 69 70 72 74 74 75 76 77 78 78
65 65 66 66 65 66 66 66 66 67 68 67 67 68 67 68 67 67 67 66 65 65 66 65 65 64 63 63 63 63 63 62 63 63 62 63 64 62 62 63 63 64 64 64 63 63 63 62 59 61 63 62 61 65 68 69 71 73 74 75 74 77 77
65 64 64 64 65 65 66 65 66 67 67 67 67 66 66 67 66 67 65 65 65 65 65 65 64 64 63 63 63 63 62 62 62 62 61 61 62 61 61 62 61 62 61 60 59 62 62 62 62 63 64 67 66 64 68 70 69 73 76 76 75 75 76
66 65 65 64 64 65 65 65 66 66 66 66 66 66 65 66 66 65 65 65 65 64 64 64 64 65 64 64 63 63 62 62 62 61 61 60 60 61 59 60 61 62 62 60 59 59 60 61 61 62 64 67 68 70 73 71 73 74 75 77 79 78 78
66 66 67 66 66 66 66 65 65 66 66 65 66 66 65 65 65 64 65 65 64 64 64 64 64 64 64 63 63 62 61 61 61 61 60 59 59 59 59 60 61 60 61 63 62 60 60 60 60 60 64 66 62 65 70 71 70 75 77 78 79 79 79
66 66 67 67 66 67 66 66 66 66 66 66 66 66 66 66 66 66 65 65 65 64 64 63 63 64 64 64 62 61 61 61 61 60 60 60 59 59 60 59 59 59 59 60 61 62 60 60 59 58 58 61 63 64 68 70 72 70 74 77 79 80 79
67 67 67 68 66 65 66 66 67 67 67 67 67 67 66 66 65 65 64 64 64 63 63 63 63 63 63 63 63 61 61 62 61 61 60 59 59 59 58 59 59 59 59 60 60 60 62 61 59 59 57 55 58 61 62 68 70 69 70 75 77 77 78
67 67 67 66 66 66 65 66 66 66 68 67 67 66 65 65 64 64 64 64 64 64 64 64 64 64 63 62 62 61 60 62 60 60 60 59 58 58 58 59 60 59 59 59 60 60 60 60 61 61 60 58 55 54 60 60 64 67 72 71 75 75 77
65 65 65 65 65 65 65 66 66 66 66 66 66 66 65 65 65 65 64 64 64 64 64 64 64 63 63 62 62 61 60 61 61 60 60 59 59 59 59 58 59 59 59 59 59 59 59 60 61 60 61 59 58 55 55 57 61 62 68 71 68 73 75
65 65 66 66 65 64 64 65 65 64 65 65 65 64 65 64 64 64 64 63 63 63 63 63 64 63 63 62 61 61 61 61 60 60 60 60 59 59 59 59 59 59 59 59 59 59 59 59 60 60 59 60 59 56 56 55 57 63 63 67 68 69 73
65 66 66 66 65 64 64 65 65 65 65 64 65 64 64 64 64 64 64 64 63 63 63 63 63 63 63 62 61 61 60 61 60 59 59 59 58 59 58 57 58 59 59 58 58 59 59 59 59 60 61 60 59 57 55 56 52 60 64 62 67 70 69
66 66 66 65 64 64 65 65 65 64 64 65 65 65 65 64 64 64 64 64 63 63 63 62 63 63 62 62 61 61 60 60 60 59 59 59 59 58 57 57 57 58 58 59 58 58 58 59 59 59 59 59 58 58 56 54 53 54 62 62 63 66 68
64 65 65 65 64 65 65 65 65 66 66 64 65 64 65 65 65 65 64 64 64 63 62 61 62 62 62 60 61 60 60 60 59 59 59 58 58 58 58 57 57 57 58 57 58 58 58 58 58 58 59 58 57 58 57 55 53 54 59 63 62 63 65
65 65 64 64 64 65 65 64 65 65 64 65 65 65 66 65 65 65 65 65 64 63 63 62 62 62 61 59 59 59 59 59 58 58 57 57 57 57 57 57 57 57 58 57 57 59 60 58 59 59 59 58 58 58 58 54 54 53 53 59 60 64 64
65 64 63 64 64 65 65 65 65 64 64 65 65 66 66 65 65 65 65 64 64 63 63 62 62 62 61 60 59 58 58 58 57 57 56 57 58 58 56 56 56 57 57 56 56 57 58 58 59 58 56 57 56 56 56 56 53 52 52 54 58 59 61
65 64 63 64 64 64 65 65 64 64 65 65 64 64 65 65 65 65 63 63 63 63 62 61 61 62 62 61 60 59 58 58 57 57 56 57 57 57 56 55 56 56 56 55 56 57 58 58 57 58 57 57 56 56 55 55 54 52 52 51 55 57 59
65 64 63 64 64 64 64 65 64 65 65 64 65 64 64 65 64 64 62 63 63 63 62 62 62 61 60 60 59 58 58 58 57 57 56 56 55 56 56 56 56 57 56 55 55 56 57 55 57 57 57 58 58 57 56 55 55 54 52 51 53 56 57
65 64 64 64 64 64 64 64 64 64 65 65 64 63 63 63 64 64 64 64 64 63 63 63 62 62 60 59 58 58 58 57 57 57 57 56 57 56 55 56 56 56 56 54 54 55 55 55 56 55 56 57 58 58 56 56 56 55 54 53 53 53 56
65 64 64 64 64 64 64 64 64 64 64 64 63 62 63 63 64 65 65 64 63 63 62 62 61 60 59 59 58 58 57 57 56 56 56 56 56 56 56 56 55 55 55 55 54 54 55 54 54 54 55 55 56 55 55 55 56 55 54 54 55 55 56
65 65 64 64 64 64 64 63 63 64 64 63 63 63 62 63 63 65 64 63 63 63 62 61 61 60 59 58 58 57 57 56 56 55 55 55 55 55 55 55 55 55 55 55 54 54 54 53 54 54 55 55 55 54 54 54 54 54 53 53 53 54 56
64 64 64 64 63 63 63 63 63 63 60 59 61 60 60 62 62 63 63 62 62 61 60 59 59 59 58 58 58 57 56 56 55 54 54 55 55 55 55 55 55 55 54 50 47 47 48 48 51 51 53 54 53 53 53 54 54 53 53 53 53 54 54
63 63 63 63 63 63 63 62 62 60 59 59 60 58 57 58 59 60 60 61 60 59 58 58 52 48 51 58 57 56 55 55 55 54 53 53 54 54 54 54 54 50 48 47 46 44 43 43 45 49 51 52 52 52 52 52 53 53 52 51 51 52 52
63 62 63 63 63 63 63 60 60 59 58 58 55 54 54 55 56 56 58 59 58 57 57 56 44 42 43 46 54 55 55 54 54 53 53 53 52 53 54 55 54 52 50 49 50 44 42 42 42 42 42 44 46 49 49 49 50 51 52 52 52 52 51
61 62 62 62 62 63 61 60 59 59 58 57 57 56 55 56 56 56 57 58 57 57 57 47 41 41 41 41 47 55 54 54 53 53 53 53 53 53 52 52 53 52 52 52 52 51 49 44 42 41 41 41 41 41 42 47 48 49 49 50 50 51 51
61 61 62 62 62 61 60 59 59 58 57 58 57 56 57 56 56 56 56 56 56 56 56 43 41 41 40 40 40 48 55 53 53 52 52 52 52 51 51 51 51 51 52 48 49 52 52 51 46 43 42 41 41 41 40 39 41 47 49 48 48 49 50
60 60 61 61 60 60 59 59 58 58 57 56 56 57 57 55 56 56 57 56 55 56 55 44 41 41 40 39 38 44 54 52 52 52 52 52 51 51 51 50 50 50 51 51 51 51 51 50 50 50 50 50 51 49 43 40 39 39 42 48 48 48 51
59 59 60 60 59 59 58 58 57 58 57 55 56 56 55 55 55 56 56 56 55 54 53 42 40 40 39 39 37 42 53 51 51 52 51 51 51 50 50 50 50 49 50 50 51 49 48 48 48 47 48 48 49 50 51 51 51 51 50 48 48 48 49
58 59 59 58 58 58 57 56 55 55 55 55 55 55 54 55 54 55 55 54 53 52 51 40 40 39 39 38 38 50 52 51 51 51 51 51 51 51 51 50 50 49 49 49 46 41 42 46 46 46 46 47 47 47 48 47 45 45 48 49 50 51 51
57 58 58 58 57 56 56 56 55 53 52 52 51 53 53 54 55 54 52 52 51 50 51 43 39 39 39 37 43 53 51 52 52 50 50 50 51 51 50 51 50 49 49 49 45 40 39 40 45 45 44 44 44 45 45 47 44 42 41 41 41 41 41
57 57 58 58 58 57 57 56 54 52 51 50 50 51 51 51 52 51 49 50 51 51 52 46 38 39 39 38 44 51 52 52 50 50 50 50 50 50 50 45 46 48 48 49 43 39 39 42 44 44 44 43 42 43 44 46 46 46 43 41 40 40 40
57 57 57 58 58 56 54 53 51 50 48 48 47 48 49 47 47 49 50 50 48 49 51 48 39 39 38 38 45 52 52 52 50 49 49 49 50 50 50 48 45 45 46 45 39 39 38 41 44 43 43 41 40 40 42 44 44 44 45 45 45 46 44
57 57 58 58 57 56 53 50 48 48 48 48 46 45 44 44 45 48 49 48 46 48 48 50 46 37 39 38 39 50 51 50 49 48 49 48 47 49 49 49 47 41 38 38 37 37 37 37 41 42 42 40 39 39 43 44 44 44 44 43 43 44 44
56 57 58 57 56 52 50 49 48 49 48 49 49 48 47 48 48 47 45 45 46 48 50 52 49 37 38 39 38 40 50 49 49 48 47 47 48 47 48 48 49 44 39 38 37 37 37 37 37 40 40 39 40 41 41 41 41 40 41 41 42 42 43
57 56 57 55 50 48 48 48 47 46 45 46 46 46 47 48 49 48 46 46 46 46 46 43 51 40 37 38 38 37 45 48 46 45 44 46 47 47 47 47 47 43 38 37 36 36 36 36 36 39 39 37 37 36 39 40 40 40 40 40 40 40 41
55 54 52 51 49 46 45 45 45 44 43 42 42 42 43 44 45 45 45 46 46 46 48 48 39 46 40 37 37 37 37 40 39 43 44 44 44 45 46 46 44 40 37 36 36 36 36 36 36 38 36 36 36 36 37 39 39 39 38 38 38 38 38
55 53 50 48 47 45 43 43 42 42 43 42 41 41 41 42 44 45 46 47 48 50 49 50 43 37 41 37 37 37 37 36 37 42 43 43 45 45 44 43 42 37 36 36 36 36 36 36 38 36 36 36 36 36 38 38 37 37 37 36 36 37 38

ECMWFFLT1_sfc_temp_021.txt.gz
Temp
76 74 75 75 76 76 75 75 76 75 76 77 76 76 76 76 76 75 75 75 76 77 77 77 76 76 75 76 75 75 75 74 71 68 66 66 65 64 68 68 68 68 67 66 65 62 59 58 62 66 65 64 66 67 68 71 69 68 69 69 68 71 74
77 76 77 77 76 76 74 75 76 76 76 76 77 76 76 76 75 75 75 75 75 76 78 76 75 75 73 72 72 73 72 72 72 72 70 68 69 68 66 67 71 71 70 68 67 65 59 58 59 59 62 65 65 66 67 70 71 72 71 72 72 75 70
76 77 77 75 75 75 74 74 74 75 75 74 75 76 75 76 75 75 75 74 74 75 75 74 73 72 72 72 72 71 72 71 72 72 71 71 72 71 71 70 69 71 72 71 67 67 69 70 64 67 68 65 63 67 71 70 71 72 75 75 74 77 76
75 75 75 73 74 74 73 73 74 75 75 75 74 74 74 75 74 75 74 74 74 74 75 75 74 74 72 71 71 72 71 71 71 70 70 71 71 70 71 72 71 70 68 67 67 68 67 66 67 68 70 74 73 70 72 74 75 78 78 78 78 78 79
75 75 74 73 74 73 73 73 75 74 74 74 74 73 73 74 73 73 73 74 73 73 73 74 74 74 74 73 73 72 71 71 71 70 70 69 69 70 69 70 70 70 70 69 69 68 67 68 67 67 68 72 74 76 78 76 78 77 79 80 82 82 82
75 75 75 74 75 74 75 74 74 74 74 73 73 72 72 72 73 72 72 73 72 73 73 74 73 73 73 73 72 71 71 70 70 70 69 68 68 69 69 70 71 71 70 70 70 68 68 68 67 66 70 73 68 70 75 77 75 79 81 82 83 84 85
75 75 76 75 75 76 76 75 75 75 74 73 73 72 73 73 73 73 73 73 73 73 72 72 72 73 73 75 72 71 70 70 70 69 68 68 68 68 70 70 70 70 69 69 69 68 67 66 65 65 65 67 69 70 75 76 79 77 81 83 84 84 84
76 77 77 77 76 76 76 75 76 76 75 75 74 74 74 73 73 73 73 72 72 72 72 71 72 72 72 73 72 70 70 70 70 70 68 68 67 68 67 69 69 70 69 71 70 69 70 68 66 65 65 62 64 68 69 75 76 76 77 81 84 84 84
78 77 77 78 77 77 76 76 75 76 77 76 75 74 73 74 73 72 72 72 72 72 72 72 72 72 71 71 71 70 69 71 68 68 69 68 67 67 67 68 70 70 69 70 70 70 70 68 67 66 65 64 62 61 66 67 70 73 79 77 81 83 84
77 77 77 77 77 76 76 76 76 76 77 76 75 74 73 74 73 73 72 72 71 72 71 72 72 72 71 71 70 69 69 70 70 69 69 68 68 68 68 67 68 70 69 69 69 69 68 68 68 68 67 64 64 61 61 63 66 67 74 78 75 80 82
77 77 78 78 77 76 76 76 76 76 76 76 76 74 73 73 73 73 73 72 71 72 71 72 72 72 71 71 70 70 71 70 69 69 69 69 68 68 67 68 69 69 68 68 68 67 67 67 67 68 68 68 66 62 62 60 62 68 69 73 76 76 80
77 77 77 78 77 76 76 76 76 76 76 76 76 74 73 73 73 72 73 72 72 71 72 72 72 71 72 71 70 70 69 69 69 68 69 68 68 68 67 66 68 68 68 68 67 68 68 68 68 69 69 69 67 65 62 62 59 67 71 68 72 76 75
78 78 77 77 76 76 76 76 77 76 75 76 76 75 74 74 73 72 73 73 72 72 72 71 71 71 71 70 70 70 69 69 69 68 68 68 69 68 66 66 66 67 68 68 69 68 68 68 68 68 68 68 68 67 65 62 59 60 68 68 70 72 75
76 77 77 77 75 75 75 76 76 77 77 75 76 75 74 75 75 73 74 73 73 72 71 71 71 71 71 70 70 70 69 70 69 69 68 67 68 67 68 68 67 66 66 65 67 68 69 69 68 67 68 68 67 67 66 63 60 60 65 70 69 70 73
76 76 76 76 75 76 75 75 75 75 76 76 77 76 76 75 75 74 74 75 74 74 72 72 72 71 71 69 69 69 68 69 69 69 67 67 67 67 66 66 68 67 67 66 65 68 71 70 71 70 71 69 69 67 68 65 64 62 60 65 67 71 71
76 75 75 75 75 75 75 73 75 74 75 76 77 77 76 76 75 75 75 74 75 74 73 73 72 71 71 70 69 68 68 69 68 67 66 67 68 68 65 65 65 66 65 64 65 65 66 67 69 69 67 68 67 66 67 67 64 61 61 62 65 66 68
74 75 74 74 74 74 75 74 74 73 75 74 74 76 77 77 76 75 74 74 74 74 73 73 72 72 72 71 69 68 69 68 68 68 67 68 69 67 66 65 65 65 65 64 65 65 66 67 66 67 66 67 67 67 67 66 65 62 62 60 64 66 67
70 70 71 72 71 70 69 72 75 74 72 72 73 72 75 77 76 76 73 74 74 74 74 73 72 71 71 70 70 69 69 69 68 68 68 67 65 66 66 65 66 66 65 63 64 64 66 64 66 66 65 66 67 67 67 66 66 66 63 61 62 66 67
71 71 71 69 65 66 70 71 71 72 74 73 72 71 72 75 76 76 76 75 76 75 75 74 73 72 72 70 70 69 69 68 68 68 67 67 67 66 65 66 65 65 65 63 63 63 63 63 64 63 64 64 66 65 63 63 64 63 63 63 62 62 65
68 68 68 68 69 70 71 70 69 65 69 72 73 73 73 73 74 76 76 76 75 75 75 75 73 72 72 71 69 69 67 67 67 67 67 66 67 66 66 66 65 64 63 63 62 62 62 61 61 61 62 62 63 63 62 62 63 62 62 61 62 63 63
71 70 70 70 70 70 70 71 71 71 72 72 72 74 74 74 72 71 76 76 76 75 75 74 74 73 72 70 69 68 67 66 66 66 65 66 66 65 65 65 64 64 64 63 61 61 60 59 60 60 61 61 61 60 60 61 61 62 61 61 61 62 63
72 72 72 73 73 71 70 69 68 67 70 73 72 73 74 73 74 74 75 75 75 75 73 73 73 72 71 70 69 67 66 66 66 65 64 65 65 64 65 64 64 64 61 54 49 50 51 50 55 56 58 60 59 59 59 59 60 60 60 60 60 62 62
73 73 72 72 73 73 73 74 73 73 72 72 72 72 74 73 73 69 72 74 74 73 73 73 66 57 60 69 67 67 66 66 66 65 63 63 63 64 64 64 63 57 52 51 50 46 45 45 46 52 56 56 56 56 56 57 57 58 58 58 59 60 59
73 72 73 73 72 73 74 73 73 73 73 72 71 72 71 70 72 71 70 71 70 71 70 71 52 49 51 54 65 67 66 65 65 65 64 63 62 62 63 64 64 57 55 52 53 45 45 43 43 43 44 45 48 52 53 53 54 55 55 56 57 58 58
72 72 72 73 73 73 73 73 73 73 72 72 72 72 71 70 71 71 69 67 66 63 64 51 47 48 48 49 55 66 65 64 64 64 64 63 63 63 63 63 62 62 61 61 61 59 50 44 43 42 41 42 42 42 44 50 51 52 53 54 54 55 56
72 72 72 72 73 72 72 72 72 72 72 72 72 71 71 70 70 70 69 68 67 64 65 44 46 46 47 48 50 58 66 65 63 64 63 63 63 63 63 62 62 61 62 55 57 59 60 59 46 41 43 43 42 42 41 40 42 50 53 51 51 51 53
71 71 71 72 72 72 72 71 71 71 71 71 70 70 70 70 70 69 69 68 66 66 62 46 45 45 46 45 45 53 67 64 63 64 63 62 62 61 61 60 60 60 61 62 61 61 61 60 60 57 55 54 54 50 42 40 40 40 44 50 51 51 53
70 70 71 71 70 70 70 70 70 71 71 70 70 69 69 69 69 68 68 68 66 65 57 44 44 44 44 44 42 50 63 62 61 61 61 61 61 61 61 60 59 58 59 60 61 57 58 58 57 55 55 55 56 57 58 56 52 51 50 50 51 53 53
69 70 70 70 69 69 70 69 69 70 70 71 71 71 71 70 69 68 68 66 65 58 53 42 43 43 43 43 43 58 60 59 59 60 60 61 61 61 61 60 59 59 60 60 48 40 48 55 55 53 52 53 54 55 56 53 50 51 55 56 56 55 55
68 68 69 68 69 68 68 69 69 70 69 69 69 69 69 70 70 69 67 66 63 56 54 44 42 42 43 41 48 59 58 58 58 58 59 60 61 62 61 61 60 60 59 60 44 38 38 45 52 52 51 51 52 53 53 56 50 45 44 45 45 44 44
69 68 68 68 68 68 68 69 69 70 69 68 68 69 70 70 70 69 67 65 61 56 54 46 41 42 42 42 49 58 58 57 58 59 59 60 61 62 62 54 56 59 58 59 39 38 37 46 51 52 51 49 50 50 51 54 54 54 47 43 43 43 43
68 67 67 67 67 67 67 68 69 70 69 69 68 69 70 69 67 67 67 63 53 55 52 45 40 41 41 41 48 57 58 59 58 58 59 59 60 61 62 57 50 53 56 54 37 39 36 45 51 50 50 49 47 48 50 52 51 51 53 53 53 52 50
67 67 67 67 67 67 68 68 68 68 68 69 69 69 69 68 64 61 58 55 54 52 49 47 44 40 41 40 39 49 58 58 56 56 57 57 58 59 59 60 57 43 40 37 36 36 37 37 45 48 48 47 46 46 50 50 49 48 47 47 47 48 48
67 67 67 67 67 67 67 67 67 67 66 67 67 67 66 65 61 56 55 54 52 51 50 48 44 39 40 40 37 43 56 55 56 55 56 56 57 57 58 59 57 38 38 37 37 35 37 37 38 43 44 45 46 45 42 44 44 42 45 45 45 45 46
67 66 66 66 65 65 66 67 67 66 67 66 62 60 59 57 55 53 53 53 52 51 51 47 47 40 39 39 39 39 51 53 50 52 51 54 55 56 58 58 57 39 36 37 37 37 37 37 36 41 43 40 38 37 42 43 43 42 42 42 43 43 44
65 65 65 65 64 64 65 65 65 65 62 62 58 56 55 53 50 50 50 51 52 51 50 47 43 44 38 39 38 39 37 44 41 47 50 52 53 55 57 57 53 39 39 38 39 38 38 37 38 43 39 37 38 37 38 42 42 41 40 41 41 41 42
66 66 65 65 64 64 63 63 63 62 60 59 55 54 54 52 50 49 50 50 50 50 49 48 43 41 42 38 38 38 37 37 40 50 51 52 53 54 55 55 51 40 39 39 38 38 38 38 42 38 37 37 37 37 41 42 41 41 40 39 39 40 40